Regional Weather Roundup
Issued by NWS Green Bay, WI

Home | Current Version | Previous Version | Graphics & Text | Print | Product List | Glossary Off
Versions: 1 2 3 4 5 6 7 8 9 10 11 12 13 14 15 16 17 18 19 20 21 22 23 24 25 26 27 28 29 30 31 32 33 34 35 36 37 38 39 40 41 42 43 44 45 46 47 48 49 50

000
ASUS43 KGRB 282259
RWRGRB

NORTH-CENTRAL AND NORTHEAST WISCONSIN REGIONAL WEATHER ROUNDUP
NATIONAL WEATHER SERVICE GREEN BAY WI
500 PM CST WED JAN 28 2015

WIZ005-009-010>012-018-019-290000-
NORTH CENTRAL WISCONSIN

CITY           SKY/WX    TMP DP  RH WIND       PRES   REMARKS
IRONWOOD       CLOUDY    30  21  69 S5        29.78F
MANITOWISH WTR NOT AVBL
ARBOR VITAE    NOT AVBL
EAGLE RIVER    NOT AVBL
LAND O LAKES   NOT AVBL
RHINELANDER    CLOUDY    27  19  72 SE9       29.87F
PHILLIPS       NOT AVBL
ANTIGO         NOT AVBL
TOMAHAWK       NOT AVBL
MERRILL        NOT AVBL
$$

WIZ013-073-290000-
NORTHEAST WISCONSIN

CITY           SKY/WX    TMP DP  RH WIND       PRES   REMARKS
IRON MOUNTAIN  CLOUDY    28  20  71 SE13      29.93F
MARINETTE      MOCLDY    30  25  80 S8        30.00F
$$

WIZ017-030-035>037-045-290000-
CENTRAL WISCONSIN

CITY           SKY/WX    TMP DP  RH WIND       PRES   REMARKS
MEDFORD        NOT AVBL
WAUSAU         CLOUDY    28  20  71 SE10      29.87F
MOSINEE        CLEAR     28  23  80 E10       29.89F
MARSHFIELD     MOCLDY    27  22  81 SE12      29.86F HAZE
WISC RAPIDS    CLOUDY    30  20  66 SE10      29.90F
STEVENS POINT  NOT AVBL
WAUPACA        NOT AVBL
SHAWANO        NOT AVBL
CLINTONVILLE   NOT AVBL
$$

WIZ038-039-048-051-290000-
FOX VALLEY

CITY           SKY/WX    TMP DP  RH WIND       PRES   REMARKS
NWS GREEN BAY  MOCLDY    30  23  75 SE12      29.99F
APPLETON       CLOUDY    30  21  69 SE8       29.97F
OSHKOSH        CLOUDY    31  22  69 SE12      29.95F
FOND DU LAC    MOCLDY    31  21  66 SE12      29.95F
$$

WIZ022-050-052-290000-
EAST CENTRAL WISCONSIN

CITY           SKY/WX    TMP DP  RH WIND       PRES   REMARKS
STURGEON BAY   CLOUDY    30  23  74 S16G22    30.03F
MANITOWOC      NOT AVBL
SHEBOYGAN      MOCLDY    31  22  69 SE12G22   30.01F
$$

LMZ563-521-522-541>543-290000-
LAKESHORE

STATION/POSITION TIME  TEMP    WIND        PRES    VSBY  WAVE
                       AIR SEA DIR/SP/G                  HT/PER
                 (UTC) (F)     (DEG/KT/KT) (MB)    (MI)  (FT/S)
SHEBOYGAN LKSHOR 2200   32     160/ 26/ 29 1018.2F
KEWAUNEE LKSHORE 2200   32     180/ 21/ 27 1016.2F
TWO RIVERS CG    2200   31                 1017.5      6   4
NORTHPORT PIER   2200   32     150/  7/ 16 1017.6F
CHAMBERS ISLAND  2200   31     160/  7/ 11 1017.3F
MENOMINEE LKSHOR 2200   29     130/ 12     1017.1F
$$



USA.gov is the U.S. government's official web portal to all federal, state and local government web resources and services.